Regional Weather Roundup
Issued by NWS Newport/Morehead, NC

Current Version | Previous Version | Graphics & Text | Print | Product List | Glossary On
Versions: 1 2 3 4 5 6 7 8 9 10 11 12 13 14 15 16 17 18 19 20 21 22 23 24 25 26 27 28 29 30 31 32 33 34 35 36 37 38 39 40 41 42 43 44 45 46 47 48 49 50
000 ASUS42 KMHX 030513 RWRMHX WEATHER ROUNDUP FOR EASTERN NORTH CAROLINA NATIONAL WEATHER SERVICE NEWPORT/MOREHEAD CITY NC 100 AM EDT FRI JUL 03 2015 NOTE: "FAIR" INDICATES FEW OR NO CLOUDS BELOW 12,000 FEET WITH NO SIGNIFICANT WEATHER AND/OR OBSTRUCTIONS TO VISIBILITY NCZ015>017-031-032-045>047-102-103-030600- NORTH COAST CITY SKY/WX TMP DP RH WIND PRES REMARKS EDENTON RAIN 73 70 93 CALM 29.92S ELIZABETH CITY LGT RAIN 73 71 93 W3 29.92R KITTY HAWK LGT RAIN 73 71 93 CALM 29.90F MANTEO N/A 72 70 94 W3 29.91F $$ NCZ045>047-081-094-103-104-030600- CENTRAL COAST CITY SKY/WX TMP DP RH WIND PRES REMARKS FRISCO CLOUDY 78 74 87 SW15 29.92F SWANQUARTER N/A 77 N/A N/A W7 29.88S $$ NCZ095-097-098-100-101-030600- SOUTHERN COAST CITY SKY/WX TMP DP RH WIND PRES REMARKS BEAUFORT MOCLDY 79 74 84 W14G24 29.92R CEDAR ISLAND N/A 81 N/A N/A SW7G17 29.94S JACKSONVILLE CLOUDY 74 68 81 W7 29.94R PINEY ISLAND MOCLDY N/A N/A N/A W18G32 29.91S WILMINGTON CLOUDY 73 69 87 W7 29.93R $$ NCZ011>013-027>030-043-044-078>080-089-090>093-098-030600- COASTAL PLAIN CITY SKY/WX TMP DP RH WIND PRES REMARKS AHOSKIE MOCLDY 70 69 96 CALM 29.93S CLINTON PTCLDY 72 69 93 CALM 29.93F ELIZABETHTOWN MOCLDY 72 69 92 SW3 29.93F GOLDSBORO MOCLDY 73 70 92 SW5 29.91F GREENVILLE CLOUDY 73 72 94 N3 29.94F HAVELOCK MOCLDY 78 69 73 W13 29.94S KENANSVILLE MOCLDY 73 66 79 W8 29.94F KINSTON MOCLDY 75 68 79 W5 29.93F NEW BERN PTCLDY 77 67 71 W9G20 29.94R RICHLANDS CLOUDY 73 64 73 W7 29.94S ROCKY MOUNT CLOUDY 73 71 93 CALM 29.93F WASHINGTON LGT RAIN 73 72 97 CALM 29.92F WHITEVILLE CLOUDY 71 69 93 W3 29.93F $$ AMZ130-135-150-152-154-156-158-170-250-252-270-ANZ085-086-088-633-658-670-030600- MARINE OBSERVATIONS STATION/POSITION TIME TEMP WIND PRES WAVE SWELL AIR SEA DIR/SP/G HT/PER HT/PER (UTC) (F) (DEG/KT/KT) (MB) (FT/S) (FT/S) CHESAPEAKE LIGHT 0500 74 360/ 4/ 5 1013.4 64 E VA BEACH 0450 76 77 250/ 12/ 14 1012.2 4/ 7 3/ 7 DUCK 0400 72 61 180/ 7/ 7 1012.2 2 E DUCK 0411 70 N/A 2/ 8 OREGON INLET 0400 73 83 270/ 7/ 11 1013.2 13E OREGON INLT 0500 72 N/A 5/ 7 HATTERAS CG 0400 78 79 220/ 13/ 16 1012.9 DIAMOND BUOY 0450 82 83 230/ 25/ 33 1012.5 8/ 7 2/15 CAPE LOOKOUT 0500 78 270/ 19/ 22 1013.2 BEAUFORT LAB 0400 81 81 220/ 8/ 19 1012.2 30 SE NEW RVR IN 0408 79 80 270/ 21/ 29 1013.7 27 SE WRIGHTSVLE 0400 80 260/ 21/ 27 N/A 5 SE WRIGHTSVLE NOT AVBL 225 S CAPE HAT 0450 82 80 220/ 17/ 21 1018.4 6/ 7 3/ 7 41 SE CHARLESTON 0450 76 81 250/ 12/ 14 1014.8 5/ 6 3/ 6 $$

USA.gov is the U.S. government's official web portal to all federal, state and local government web resources and services.